Weather History for Baraboo, WI

Change the Weather History Date:

Saturday, October 5, 2013

  Actual Average Record
Temperature  
Mean Temperature 63 °F -  
Max Temperature 71 °F 63 °F 83 °F (1963)
Min Temperature 54 °F 39 °F 20 °F (1952)
Degree Days  
Heating Degree Days 2    
Growing Degree Days 13 (Base 50)    
Moisture  
Dew Point 60 °F    
Average Humidity 92    
Maximum Humidity 96    
Minimum Humidity 69    
Precipitation  
Precipitation 0.49 in - - ()
Sea Level Pressure  
Sea Level Pressure 29.84 in    
Wind  
Wind Speed 8 mph (ESE)    
Max Wind Speed 15 mph    
Max Gust Speed 21 mph    
Visibility 4 miles    
Events Fog , Rain , Thunderstorm    
Averages and records for this station are not official NWS values.
T = Trace of Precipitation, MM = Missing Value Source: NWS Daily Summary

Daily Weather History Graph

Daily Weather History Graph

Search for Another Location

Airport:

Trip Planner

Search our weather history database for the weather conditions in past years. The results will help you decide how hot, cold, wet, or windy it might be!

Date:

Astronomy

Oct. 05, 2013 Rise Set
Actual Time 7:01 AM CDT 6:32 PM CDT
Civil Twilight 6:32 AM CDT 7:01 PM CDT
Nautical Twilight 5:59 AM CDT 7:34 PM CDT
Astronomical Twilight 5:26 AM CDT 8:07 PM CDT
Moon 7:43 AM CDT (10/5) 6:48 PM CDT (10/5)
Length of Visible Light 12h 28m
Length of Day
11h 31m
New Moon, 1% of the Moon is Illuminated
Oct 5
New Moon
Oct 11
First Quarter
Oct 18
Full
Oct 26
Last Quarter
Nov 3
New

Hourly Weather History & Observations

Time (CDT) Temp. Dew Point Humidity Pressure Visibility Wind Dir Wind Speed Gust Speed Precip Events Conditions
12:15 AM 59.0 °F 57.7 °F 96% 29.92 in 0.2 mi East 11.5 mph - N/A Fog Fog
12:35 AM 59.0 °F 57.7 °F 96% 29.92 in 0.2 mi East 13.8 mph 20.7 mph N/A Fog Fog
12:55 AM 59.0 °F 57.7 °F 96% 29.92 in 0.2 mi East 10.4 mph 18.4 mph N/A Fog Fog
1:15 AM 59.2 °F 58.1 °F 96% 29.93 in 0.8 mi East 11.5 mph - N/A   Overcast
1:35 AM 59.4 °F 58.1 °F 96% 29.94 in 1.8 mi East 6.9 mph - N/A   Overcast
1:55 AM 59.4 °F 58.1 °F 96% 29.93 in 1.5 mi ESE 8.1 mph - N/A   Overcast
2:15 AM 59.4 °F 58.1 °F 96% 29.93 in 1.5 mi East 5.8 mph - N/A   Overcast
2:35 AM 59.4 °F 58.1 °F 96% 29.91 in 1.2 mi East 6.9 mph - N/A   Overcast
2:55 AM 59.4 °F 58.1 °F 96% 29.91 in 0.8 mi East 9.2 mph - N/A   Overcast
3:15 AM 59.4 °F 58.1 °F 96% 29.91 in 0.5 mi East 9.2 mph - N/A Fog Fog
3:35 AM 59.4 °F 58.1 °F 96% 29.90 in 0.5 mi East 10.4 mph - N/A Fog Fog
3:55 AM 59.4 °F 58.1 °F 96% 29.90 in 0.2 mi East 8.1 mph - N/A Fog Fog
4:15 AM 59.0 °F 57.7 °F 96% 29.92 in 0.8 mi North 8.1 mph 17.3 mph 0.05 in Rain , Thunderstorm Light Thunderstorms and Rain
4:35 AM 58.6 °F 57.4 °F 96% 29.92 in 2.0 mi North 5.8 mph 19.6 mph 0.05 in Thunderstorm Overcast
4:55 AM 58.5 °F 57.2 °F 96% 29.93 in 4.0 mi NNE 6.9 mph - 0.05 in Rain Light Rain
5:15 AM 58.3 °F 57.2 °F 96% 29.93 in 2.0 mi NE 9.2 mph - N/A   Drizzle
5:35 AM 58.3 °F 57.2 °F 96% 29.92 in 1.8 mi ENE 13.8 mph - 0.01 in   Drizzle
5:55 AM 58.3 °F 57.2 °F 96% 29.92 in 2.5 mi East 15.0 mph - 0.01 in   Light Drizzle
6:15 AM 58.1 °F 57.0 °F 96% 29.92 in 3.0 mi East 8.1 mph 11.5 mph N/A   Overcast
6:35 AM 58.1 °F 56.8 °F 96% 29.90 in 4.0 mi East 11.5 mph 16.1 mph N/A   Overcast
6:55 AM 58.1 °F 56.8 °F 96% 29.87 in 3.0 mi East 13.8 mph - N/A   Overcast
7:15 AM 58.5 °F 57.2 °F 96% 29.89 in 3.0 mi East 6.9 mph - N/A   Overcast
7:35 AM 59.0 °F 57.6 °F 95% 29.89 in 4.0 mi East 9.2 mph - N/A   Overcast
7:55 AM 59.0 °F 57.7 °F 96% 29.89 in 4.0 mi East 5.8 mph - N/A   Overcast
8:15 AM 59.4 °F 58.1 °F 96% 29.88 in 3.0 mi ESE 8.1 mph - N/A   Overcast
8:35 AM 59.7 °F 58.5 °F 96% 29.89 in 1.8 mi ESE 5.8 mph - N/A   Overcast
8:55 AM 60.3 °F 59.0 °F 96% 29.88 in 0.8 mi ESE 6.9 mph - N/A   Overcast
9:15 AM 60.8 °F 59.4 °F 95% 29.87 in 0.5 mi East 8.1 mph - N/A Fog Fog
9:35 AM 61.0 °F 59.9 °F 96% 29.87 in 0.2 mi East 5.8 mph - N/A Fog Fog
9:55 AM 61.3 °F 60.1 °F 96% 29.87 in 0.5 mi ESE 4.6 mph - N/A Fog Fog
10:15 AM 61.9 °F 60.8 °F 96% 29.89 in 0.8 mi Calm Calm - N/A   Light Drizzle
10:35 AM 62.2 °F 61.0 °F 96% 29.89 in 1.2 mi Calm Calm - N/A   Overcast
10:55 AM 62.8 °F 61.7 °F 96% 29.88 in 1.2 mi SE 4.6 mph - 0.01 in Rain Light Rain
11:15 AM 63.9 °F 62.6 °F 96% 29.87 in 1.5 mi SE 5.8 mph - 0.01 in   Overcast
11:35 AM 64.2 °F 62.8 °F 95% 29.88 in 1.0 mi ESE 3.5 mph - 0.01 in   Overcast
11:55 AM 64.4 °F 63.0 °F 95% 29.87 in 1.0 mi Calm Calm - 0.01 in Rain Light Rain
12:15 PM 64.8 °F 63.5 °F 96% 29.87 in 1.8 mi SSE 3.5 mph - N/A Rain Light Rain
12:35 PM 64.9 °F 63.5 °F 95% 29.87 in 1.8 mi SE 3.5 mph - N/A Rain Rain
12:55 PM 65.1 °F 63.5 °F 94% 29.87 in 1.5 mi SE 3.5 mph - 0.01 in Rain Light Rain
1:15 PM 65.3 °F 63.9 °F 95% 29.87 in 1.5 mi Calm Calm - 0.02 in Rain Rain
1:35 PM 65.7 °F 64.2 °F 95% 29.84 in 2.0 mi ESE 3.5 mph - 0.02 in Rain Rain
1:55 PM 66.2 °F 64.6 °F 94% 29.82 in 2.5 mi East 4.6 mph - 0.03 in   Light Drizzle
2:15 PM 66.7 °F 65.3 °F 95% 29.81 in 2.0 mi Calm Calm - N/A   Overcast
2:35 PM 67.5 °F 66.0 °F 95% 29.79 in 3.0 mi ESE 3.5 mph - N/A   Overcast
2:55 PM 68.0 °F 66.2 °F 94% 29.78 in 3.0 mi Calm Calm - N/A   Overcast
3:15 PM 68.9 °F 66.6 °F 92% 29.77 in 4.0 mi SE 3.5 mph - N/A   Overcast
3:35 PM 70.0 °F 67.1 °F 91% 29.77 in 5.0 mi SW 3.5 mph - N/A   Mostly Cloudy
3:55 PM 71.2 °F 66.4 °F 85% 29.77 in 10.0 mi South 6.9 mph - N/A   Mostly Cloudy
4:15 PM 71.2 °F 66.7 °F 86% 29.77 in 10.0 mi South 4.6 mph - N/A   Scattered Clouds
4:35 PM 71.2 °F 66.0 °F 84% 29.77 in 10.0 mi SE 5.8 mph - N/A   Mostly Cloudy
4:55 PM 70.7 °F 66.0 °F 85% 29.77 in 10.0 mi ESE 4.6 mph - N/A   Mostly Cloudy
5:15 PM 70.2 °F 66.2 °F 87% 29.76 in 10.0 mi East 5.8 mph - N/A   Mostly Cloudy
5:35 PM 69.8 °F 66.4 °F 89% 29.76 in 7.0 mi East 6.9 mph - N/A   Scattered Clouds
5:55 PM 69.8 °F 66.6 °F 89% 29.75 in 4.0 mi ESE 6.9 mph - N/A Rain Light Rain
6:15 PM 66.6 °F 63.0 °F 88% 29.75 in 1.0 mi SSW 8.1 mph - 0.33 in Rain Light Rain
6:35 PM 68.0 °F 64.2 °F 88% 29.74 in 10.0 mi SE 6.9 mph - 0.33 in   Mostly Cloudy
6:55 PM 67.5 °F 63.7 °F 88% 29.74 in 10.0 mi SSE 8.1 mph - 0.33 in   Mostly Cloudy
7:15 PM 67.5 °F 64.0 °F 89% 29.74 in 10.0 mi SE 11.5 mph - N/A   Overcast
7:35 PM 67.1 °F 63.9 °F 89% 29.73 in 7.0 mi SE 9.2 mph - N/A Rain Light Rain
7:55 PM 66.6 °F 63.5 °F 90% 29.73 in 10.0 mi SE 11.5 mph - N/A   Overcast
8:15 PM 65.5 °F 62.1 °F 89% 29.75 in 10.0 mi SW 11.5 mph - 0.04 in Rain Light Rain
8:35 PM 63.7 °F 60.8 °F 90% 29.75 in 5.0 mi SW 8.1 mph - 0.04 in   Overcast
8:55 PM 62.8 °F 59.9 °F 90% 29.76 in 10.0 mi WSW 13.8 mph 17.3 mph 0.04 in   Overcast
9:15 PM 61.7 °F 57.7 °F 87% 29.76 in 10.0 mi SW 10.4 mph - N/A   Overcast
9:35 PM 61.2 °F 57.6 °F 88% 29.75 in 10.0 mi SW 9.2 mph - N/A   Overcast
9:55 PM 60.8 °F 56.1 °F 85% 29.76 in 10.0 mi WSW 6.9 mph - N/A   Overcast
10:15 PM 59.5 °F 54.9 °F 84% 29.75 in 10.0 mi WSW 8.1 mph - N/A   Mostly Cloudy
10:35 PM 58.6 °F 54.1 °F 85% 29.76 in 10.0 mi SW 9.2 mph - N/A   Scattered Clouds
10:55 PM 57.9 °F 52.7 °F 83% 29.77 in 10.0 mi WSW 8.1 mph - N/A   Mostly Cloudy
11:15 PM 56.8 °F 52.0 °F 84% 29.77 in 10.0 mi WSW 10.4 mph - N/A   Mostly Cloudy
11:35 PM 55.9 °F 46.0 °F 69% 29.77 in 10.0 mi West 10.4 mph 18.4 mph N/A   Overcast
11:55 PM 54.0 °F 45.5 °F 73% 29.77 in 10.0 mi West 5.8 mph - N/A   Scattered Clouds